Flag for France Weather past 2 weeks in Bordeaux, France

Now
70 °F

Mostly cloudy.


Feels Like: 70 °F
Forecast: 53 / 74 °F
Wind: 6 mph from Northwest

Location: Bordeaux / Merignac

Current Time: Oct 25, 2014 at 4:58:28 PM

Latest Report: Oct 25, 2014 at 4:30 PM


Visibility: N/A

Pressure: 30.15 "Hg

Humidity: 69%

Dew point: 59 °F

Location of BordeauxLocation

Historic Weather in Bordeaux — Graph

°F

Bordeaux temperature yesterday

Maximum temperature yesterday: 70 °F (at 3:30 PM)
Minimum temperature yesterday: 45 °F (at 4:00 AM)
Average temperature yesterday: 56 °F

Past Weeks' High & Low Weather Summary

 TemperatureHumidityPressure
High82 °F (Oct 17, 5:00 PM)100% (Oct 11, 12:30 AM)30.48 "Hg (Oct 11, 12:30 AM)
Low41 °F (Oct 23, 7:30 AM)40% (Oct 17, 5:00 PM)29.56 "Hg (Oct 12, 7:30 AM)
Average62 °F81%29.99 "Hg
* Reported Oct 10 3:00 PM — Oct 25 3:30 PM, Bordeaux, Weather by CustomWeather, © 2014

Note: Actual official high and low records may vary slightly from our data, if they occured in-between our weather recording intervals... More about our weather records

Advertising

Bordeaux weather history for previous 24 hours

 ConditionsComfort  
Time TempWeatherWind HumidityBarometerVisibility
3:30 PM
Oct 25
70 °FClear.7 mph64%30.15 "HgN/A
3:00 PM70 °FClear.6 mph64%30.15 "HgN/A
2:30 PM70 °FClear.1 mph60%30.15 "HgN/A
2:00 PM70 °FClear.2 mph53%30.15 "HgN/A
1:30 PM68 °FClear.1 mph56%30.15 "HgN/A
1:00 PM66 °FClear.1 mph64%30.15 "HgN/A
12:30 PM64 °FClear.1 mph64%30.15 "HgN/A
12:00 PM63 °FClear.1 mph68%30.15 "HgN/A
11:30 AM61 °FClear.No wind72%30.15 "HgN/A
11:00 AM59 °FClear.No wind77%30.15 "HgN/A
10:30 AM55 °FClear.2 mph82%30.15 "HgN/A
10:00 AM54 °FClear.No wind82%30.12 "HgN/A
9:30 AM52 °FClear.1 mph88%30.12 "HgN/A
9:00 AM48 °FClear.2 mph94%30.12 "HgN/A
8:30 AM48 °FClear.No wind94%30.09 "HgN/A
8:00 AM48 °FClear.No wind94%30.09 "HgN/A
7:30 AM46 °FClear.No wind93%30.09 "HgN/A
7:00 AM46 °FClear.No wind93%30.09 "HgN/A
6:30 AM48 °FClear.No wind87%30.09 "HgN/A
6:00 AM48 °FClear.2 mph94%30.09 "HgN/A
5:30 AM48 °FClear.2 mph94%30.09 "HgN/A
5:00 AM48 °FClear.1 mph94%30.09 "HgN/A
4:30 AM50 °FClear.2 mph88%30.09 "HgN/A
4:00 AM50 °FClear.No wind88%30.09 "HgN/A
3:30 AM50 °FClear.No wind94%30.09 "HgN/A
3:00 AM52 °FClear.2 mph88%30.09 "HgN/A
2:30 AM54 °FClear.No wind82%30.09 "HgN/A
2:00 AM54 °FClear.No wind82%30.09 "HgN/A
1:30 AM52 °FClear.No wind88%30.09 "HgN/A
1:00 AM52 °FClear.1 mph88%30.09 "HgN/A
12:30 AM52 °FClear.No wind88%30.09 "HgN/A
12:00 AM54 °FClear.2 mph82%30.09 "HgN/A
11:30 PM
Oct 24
54 °FClear.2 mph82%30.09 "HgN/A
11:00 PM54 °FClear.2 mph82%30.07 "HgN/A
10:30 PM55 °FClear.3 mph77%30.07 "HgN/A
10:00 PM57 °FClear.1 mph72%30.07 "HgN/A
9:30 PM57 °FClear.No wind72%30.07 "HgN/A
9:00 PM59 °FClear.2 mph63%30.09 "HgN/A
8:30 PM59 °FClear.No wind63%30.09 "HgN/A
8:00 PM63 °FClear.No wind56%30.07 "HgN/A
7:30 PM64 °FClear.3 mph52%30.07 "HgN/A
7:00 PM66 °FClear.3 mph49%30.07 "HgN/A
6:30 PM66 °FClear.5 mph49%30.07 "HgN/A
6:00 PM68 °FClear.6 mph46%30.07 "HgN/A
5:30 PM70 °FClear.6 mph43%30.07 "HgN/A
5:00 PM70 °FClear.6 mph43%30.07 "HgN/A
4:30 PM70 °FClear.5 mph40%30.07 "HgN/A
4:00 PM70 °FClear.5 mph40%30.07 "HgN/A
Weather by CustomWeather, © 2014

See weather overviewHow to use our weather pages